Weather History for Cody, WY

Change the Weather History Date:

Tuesday, November 20, 2012

  Actual Average Record
Temperature  
Mean Temperature 50 °F -  
Max Temperature 60 °F 41 °F 65 °F (1936)
Min Temperature 39 °F 22 °F -8 °F (1978)
Degree Days  
Heating Degree Days 16    
Moisture  
Dew Point 30 °F    
Average Humidity 44    
Maximum Humidity 65    
Minimum Humidity 33    
Precipitation  
Precipitation 0.00 in - - ()
Sea Level Pressure  
Sea Level Pressure 29.99 in    
Wind  
Wind Speed 13 mph (SW)    
Max Wind Speed 22 mph    
Max Gust Speed 33 mph    
Visibility 10 miles    
Events      
Averages and records for this station are not official NWS values.
T = Trace of Precipitation, MM = Missing Value Source: NWS Daily Summary

Daily Weather History Graph

Daily Weather History Graph

Search for Another Location

Airport:

Trip Planner

Search our weather history database for the weather conditions in past years. The results will help you decide how hot, cold, wet, or windy it might be!

Date:

Astronomy

Nov. 20, 2012 Rise Set
Actual Time 7:19 AM MST 4:43 PM MST
Civil Twilight 6:47 AM MST 5:15 PM MST
Nautical Twilight 6:12 AM MST 5:51 PM MST
Astronomical Twilight 5:37 AM MST 6:25 PM MST
Moon 12:47 PM MST (11/20) No Moon Set
Length of Visible Light 10h 27m
Length of Day
9h 23m
First Quarter, 52% of the Moon is Illuminated
Nov 20
First Quarter
Nov 28
Full
Dec 6
Last Quarter
Dec 13
New
Dec 19
First Quarter

Hourly Weather History & Observations

Time (MST) Temp. Windchill Dew Point Humidity Pressure Visibility Wind Dir Wind Speed Gust Speed Precip Events Conditions
12:15 AM 51.8 °F - 26.6 °F 38% 30.04 in 10.0 mi WSW 19.6 mph 33.4 mph N/A   Clear
12:35 AM 51.8 °F - 26.6 °F 38% 30.03 in 10.0 mi WSW 17.3 mph 31.1 mph N/A   Clear
12:55 AM 51.8 °F - 26.6 °F 38% 30.02 in 10.0 mi WSW 17.3 mph 25.3 mph N/A   Clear
1:15 AM 50.0 °F - 28.4 °F 43% 30.03 in 10.0 mi WSW 11.5 mph 20.7 mph N/A   Clear
1:35 AM 51.8 °F - 26.6 °F 38% 30.02 in 10.0 mi WSW 12.7 mph 23.0 mph N/A   Clear
1:55 AM 51.8 °F - 26.6 °F 38% 30.02 in 10.0 mi West 15.0 mph 26.5 mph N/A   Clear
2:15 AM 51.8 °F - 26.6 °F 38% 30.02 in 10.0 mi WSW 17.3 mph 29.9 mph N/A   Clear
2:35 AM 51.8 °F - 28.4 °F 41% 30.03 in 10.0 mi West 16.1 mph 25.3 mph N/A   Clear
3:15 AM 50.0 °F - 28.4 °F 43% 30.03 in 10.0 mi SW 18.4 mph - N/A   Clear
3:35 AM 50.0 °F - 28.4 °F 43% 30.03 in 10.0 mi SW 17.3 mph - N/A   Clear
3:55 AM 50.0 °F - 28.4 °F 43% 30.02 in 10.0 mi SSW 13.8 mph 20.7 mph N/A   Clear
4:15 AM 50.0 °F - 28.4 °F 43% 30.02 in 10.0 mi WSW 16.1 mph 21.9 mph N/A   Clear
4:35 AM 51.8 °F - 28.4 °F 41% 30.02 in 10.0 mi WSW 16.1 mph 24.2 mph N/A   Clear
4:55 AM 51.8 °F - 28.4 °F 41% 30.02 in 10.0 mi WSW 12.7 mph 24.2 mph N/A   Clear
5:15 AM 51.8 °F - 30.2 °F 44% 30.02 in 10.0 mi WSW 16.1 mph 21.9 mph N/A   Clear
5:35 AM 51.8 °F - 28.4 °F 41% 30.03 in 10.0 mi SSW 15.0 mph 26.5 mph N/A   Clear
5:55 AM 48.2 °F - 28.4 °F 46% 30.02 in 10.0 mi SSW 18.4 mph - N/A   Clear
6:15 AM 50.0 °F - 28.4 °F 43% 30.02 in 10.0 mi SSW 21.9 mph 29.9 mph N/A   Clear
6:35 AM 50.0 °F - 30.2 °F 47% 30.03 in 10.0 mi SSW 15.0 mph 25.3 mph N/A   Clear
6:55 AM 48.2 °F - 30.2 °F 50% 30.02 in 10.0 mi SSW 13.8 mph - N/A   Clear
7:15 AM 51.8 °F - 30.2 °F 44% 30.02 in 10.0 mi WSW 12.7 mph 26.5 mph N/A   Clear
7:35 AM 51.8 °F - 30.2 °F 44% 30.03 in 10.0 mi SSW 16.1 mph 19.6 mph N/A   Clear
7:55 AM 51.8 °F - 30.2 °F 44% 30.03 in 10.0 mi SSW 19.6 mph - N/A   Clear
8:15 AM 51.8 °F - 30.2 °F 44% 30.05 in 10.0 mi SSW 17.3 mph 23.0 mph N/A   Clear
8:35 AM 53.6 °F - 30.2 °F 41% 30.04 in 10.0 mi SW 15.0 mph 19.6 mph N/A   Clear
8:55 AM 53.6 °F - 30.2 °F 41% 30.04 in 10.0 mi South 13.8 mph - N/A   Clear
9:15 AM 53.6 °F - 30.2 °F 41% 30.05 in 10.0 mi South 15.0 mph - N/A   Clear
9:35 AM 53.6 °F - 28.4 °F 38% 30.05 in 10.0 mi SSE 9.2 mph - N/A   Scattered Clouds
9:55 AM 53.6 °F - 28.4 °F 38% 30.05 in 10.0 mi South 11.5 mph - N/A   Partly Cloudy
10:15 AM 55.4 °F - 26.6 °F 33% 30.05 in 10.0 mi South 11.5 mph - N/A   Clear
10:35 AM 55.4 °F - 28.4 °F 36% 30.05 in 10.0 mi South 13.8 mph - N/A   Clear
10:55 AM 57.2 °F - 28.4 °F 33% 30.04 in 10.0 mi SSE 10.4 mph - N/A   Clear
11:15 AM 57.2 °F - 30.2 °F 36% 30.04 in 10.0 mi South 8.1 mph - N/A   Clear
11:35 AM 60.8 °F - 32.0 °F 34% 30.03 in 10.0 mi West 12.7 mph 17.3 mph N/A   Partly Cloudy
11:55 AM 59.0 °F - 32.0 °F 36% 30.01 in 10.0 mi West 11.5 mph - N/A   Scattered Clouds
12:15 PM 60.8 °F - 32.0 °F 34% 30.00 in 10.0 mi WSW 4.6 mph - N/A   Mostly Cloudy
12:35 PM 60.8 °F - 33.8 °F 36% 29.99 in 10.0 mi West 9.2 mph 16.1 mph N/A   Mostly Cloudy
12:55 PM 60.8 °F - 32.0 °F 34% 29.98 in 10.0 mi WSW 6.9 mph - N/A   Overcast
1:15 PM 60.8 °F - 32.0 °F 34% 29.98 in 10.0 mi SW 11.5 mph 16.1 mph N/A   Overcast
1:35 PM 60.8 °F - 32.0 °F 34% 29.97 in 10.0 mi West 6.9 mph - N/A   Overcast
1:55 PM 60.8 °F - 32.0 °F 34% 29.97 in 10.0 mi WNW 9.2 mph - N/A   Overcast
2:15 PM 59.0 °F - 32.0 °F 36% 29.96 in 10.0 mi West 8.1 mph - N/A   Overcast
2:35 PM 59.0 °F - 32.0 °F 36% 29.96 in 10.0 mi West 8.1 mph - N/A   Scattered Clouds
2:55 PM 59.0 °F - 32.0 °F 36% 29.95 in 10.0 mi WSW 6.9 mph - N/A   Partly Cloudy
3:15 PM 59.0 °F - 32.0 °F 36% 29.95 in 10.0 mi WSW 10.4 mph - N/A   Mostly Cloudy
3:35 PM 57.2 °F - 32.0 °F 38% 29.96 in 10.0 mi West 11.5 mph 16.1 mph N/A   Overcast
3:55 PM 57.2 °F - 32.0 °F 38% 29.96 in 10.0 mi West 9.2 mph - N/A   Mostly Cloudy
4:15 PM 55.4 °F - 32.0 °F 41% 29.96 in 10.0 mi West 6.9 mph - N/A   Partly Cloudy
4:35 PM 55.4 °F - 33.8 °F 44% 29.97 in 10.0 mi West 5.8 mph - N/A   Mostly Cloudy
4:55 PM 55.4 °F - 32.0 °F 41% 29.96 in 10.0 mi West 4.6 mph - N/A   Scattered Clouds
5:15 PM 51.8 °F - 32.0 °F 47% 29.96 in 10.0 mi Calm Calm - N/A   Partly Cloudy
5:35 PM 53.6 °F - 33.8 °F 47% 29.96 in 10.0 mi West 6.9 mph - N/A   Clear
5:55 PM 51.8 °F - 32.0 °F 47% 29.96 in 10.0 mi Calm Calm - N/A   Clear
6:15 PM 51.8 °F - 33.8 °F 50% 29.96 in 10.0 mi Calm Calm - N/A   Clear
6:35 PM 53.6 °F - 33.8 °F 47% 29.96 in 10.0 mi SSE 3.5 mph - N/A   Clear
6:55 PM 48.2 °F - 33.8 °F 58% 29.96 in 10.0 mi WSW 3.5 mph - N/A   Clear
7:15 PM 48.2 °F - 32.0 °F 54% 29.97 in 10.0 mi South 4.6 mph - N/A   Clear
7:35 PM 51.8 °F - 33.8 °F 50% 29.97 in 10.0 mi Calm Calm - N/A   Clear
7:55 PM 50.0 °F - 32.0 °F 50% 29.96 in 10.0 mi SE 5.8 mph - N/A   Clear
8:15 PM 46.4 °F 43.5 °F 30.2 °F 53% 29.96 in 10.0 mi SSE 5.8 mph - N/A   Clear
8:35 PM 46.4 °F 44.3 °F 32.0 °F 57% 29.97 in 10.0 mi SSE 4.6 mph - N/A   Clear
8:55 PM 48.2 °F - 32.0 °F 54% 29.96 in 10.0 mi SSE 6.9 mph - N/A   Clear
9:15 PM 46.4 °F 43.5 °F 32.0 °F 57% 29.96 in 10.0 mi South 5.8 mph - N/A   Clear
9:35 PM 46.4 °F 44.3 °F 30.2 °F 53% 29.95 in 10.0 mi South 4.6 mph - N/A   Clear
9:55 PM 44.6 °F 39.7 °F 30.2 °F 57% 29.94 in 10.0 mi South 9.2 mph - N/A   Clear
10:15 PM 39.2 °F 32.5 °F 28.4 °F 65% 29.93 in 10.0 mi South 10.4 mph - N/A   Clear
10:35 PM 39.2 °F 33.0 °F 28.4 °F 65% 29.93 in 10.0 mi SSE 9.2 mph - N/A   Clear
10:55 PM 41.0 °F 36.4 °F 28.4 °F 61% 29.93 in 10.0 mi South 6.9 mph - N/A   Clear
11:35 PM 39.2 °F 33.0 °F 28.4 °F 65% 29.93 in 10.0 mi South 9.2 mph - N/A   Clear
11:55 PM 39.2 °F 33.6 °F 28.4 °F 65% 29.93 in 10.0 mi SSE 8.1 mph - N/A   Clear